Notices

Please take our survey and provide feedback: https://eccc.sondage-survey.ca/f/LanguageSelection.aspx?s=442ca660-fcf1-47c0-95a9-59707d6fd709

Please note that for the Engineering Climate Datasets, IDF dataset is available through this link.  Intensity-Duration-Frequency (IDF) Files: Includes the latest version of short-duration rainfall Intensity-Duration-Frequency (IDF) statistics in the form of tables and graphs with accompanying documentation for various locations across Canada.  Current IDF files can be accessed through our station finder application or downloaded for each province and territory across Canada.  In addition, historical versions of IDF files are also available for download.  Updates of IDF files are provided approximately every two years depending on the availability of data.   Thank you for your patience as we enhance our systems.

Hourly Data Report for November 04, 2020

MUSKOKA
ONTARIO
Current Station Operator: NAVCAN

44°58'29.000" N
79°18'12.000" W
281.90 m
6115529
71532
YQA

Download Data

Hourly Data (November 2020)
Hourly Data Report for November 4, 2020
TIME
LST
Temp Definition
°C
Dew Point Definition
°C
Rel Hum Definition
%
Precip. Amount Definition
mm

Wind Dir Definition
10's deg

Wind Spd Definition
km/h
Visibility Definition
km
Stn Press Definition
kPa
Hmdx Definition


Wind Chill Definition


Weather Definition


00:00 -0.6 -4.9 73 LegendMM 13 17 16.1 98.52   -6 LegendNANA
01:00 -0.1 -3.5 78 LegendMM 13 17 16.1 98.54   -5 LegendNANA
02:00 -0.2 -3.1 81 LegendMM 13 15 16.1 98.53   -5 LegendNANA
03:00 -0.2 -2.4 85 LegendMM 13 17 16.1 98.52   -5 LegendNANA
04:00 0.2 -1.4 89 LegendMM 14 15 16.1 98.50     LegendNANA
05:00 0.5 -0.5 93 LegendMM 14 13 16.1 98.48     LegendNANA
06:00 0.4 -0.3 95 LegendMM 14 11 12.9 98.49     LegendNANA
07:00 0.9 0.3 96 LegendMM 14 9 9.7 98.48     Fog
08:00 1.9 1.2 95 LegendMM 13 8 9.7 98.53     Fog
09:00 5.6 3.6 87 LegendMM 14 15 14.5 98.54     LegendNANA
10:00 9.0 4.5 73 LegendMM 16 13 16.1 98.54     LegendNANA
11:00 12.4 4.9 60 LegendMM 18 11 16.1 98.53     LegendNANA
12:00 14.1 5.5 56 LegendMM 17 15 16.1 98.49     LegendNANA
13:00 15.3 5.6 52 LegendMM 16 21 16.1 98.43     LegendNANA
14:00 16.7 6.8 52 LegendMM 17 15 16.1 98.41     LegendNANA
15:00 17.4 7.3 51 LegendMM 17 21 16.1 98.37     LegendNANA
16:00 17.4 7.5 52 LegendMM 18 22 16.1 98.36     LegendNANA
17:00 16.1 7.6 57 LegendMM 17 17 16.1 98.38     LegendNANA
18:00 14.9 7.3 60 LegendMM 17 18 16.1 98.41     LegendNANA
19:00 13.2 6.6 64 LegendMM 17 17 16.1 98.47     LegendNANA
20:00 11.7 5.8 67 LegendMM 17 13 16.1 98.50     LegendNANA
21:00 10.7 5.7 71 LegendMM 17 13 16.1 98.48     LegendNANA
22:00 9.4 5.4 76 LegendMM 16 11 16.1 98.50     LegendNANA
23:00 9.4 5.6 77 LegendMM 16 9 16.1 98.51     LegendNANA

Notes on Data Quality.

Legend

  • E = Estimated
  • M = Missing
  • NA = Not Available*
  • [empty] = Indicates an unobserved value
Date modified: